This is the latest recevied weather packets stored in our database for station/object KJ6HT. If no packets are shown the sender has not sent any weather packets the latest 10 day(s).
| Time | Temp. | Humidity | Pressure | Rain* | Wind** | Luminosity | Snow |
|---|---|---|---|---|---|---|---|
| 1788379233 | 28.89° C | 41% | 1013.5 hPa | 0 mm | - | - | - |
| 1788378319 | 29.44° C | 40% | 1013.6 hPa | 0 mm | - | - | - |
| 1788377475 | 28.89° C | 40% | 1013.8 hPa | 0 mm | - | - | - |
| 1788376530 | 27.78° C | 40% | 1014 hPa | 0 mm | - | - | - |
| 1788375689 | 27.22° C | 43% | 1014.2 hPa | 0 mm | - | - | - |
| 1788374778 | 27.22° C | 44% | 1014.3 hPa | 0 mm | - | - | - |
| 1788373855 | 26.67° C | 46% | 1014.5 hPa | 0 mm | - | - | - |
| 1788372917 | 25.56° C | 48% | 1014.6 hPa | 0 mm | - | - | - |
| 1788372064 | 25° C | 49% | 1014.7 hPa | 0 mm | - | - | - |
| 1788371134 | 24.44° C | 50% | 1014.7 hPa | 0 mm | - | - | - |
| 1788370276 | 24.44° C | 54% | 1014.7 hPa | 0 mm | - | - | - |
| 1788369328 | 23.89° C | 55% | 1014.7 hPa | 0 mm | - | - | - |
| 1788368481 | 23.33° C | 58% | 1014.8 hPa | 0 mm | - | - | - |
| 1788367560 | 22.78° C | 63% | 1014.8 hPa | 0 mm | - | - | - |
| 1788366612 | 22.22° C | 67% | 1014.6 hPa | 0 mm | - | - | - |
| 1788365775 | 21.67° C | 69% | 1014.5 hPa | 0 mm | - | - | - |
| 1788364831 | 21.11° C | 71% | 1014.6 hPa | 0 mm | - | - | - |
| 1788363915 | 21.11° C | 70% | 1014.6 hPa | 0 mm | - | - | - |
| 1788363079 | 21.67° C | 69% | 1014.5 hPa | 0 mm | - | - | - |
| 1788362121 | 20° C | 73% | 1014.4 hPa | 0 mm | - | - | - |
| 1788361277 | 18.89° C | 75% | 1014.6 hPa | 0 mm | - | - | - |
| 1788360387 | 18.33° C | 76% | 1014.5 hPa | 0 mm | - | - | - |
| 1788359409 | 17.78° C | 80% | 1014.5 hPa | 0 mm | - | - | - |
| 1788358572 | 17.22° C | 84% | 1014.4 hPa | 0 mm | - | - | - |
| 1788357648 | 16.11° C | 91% | 1014.2 hPa | 0 mm | - | - | - |
* Rain latest hour (hover to see other rain measurements)
** Current wind speed in m/s (hover to see current wind gust speed)